Date,TemperatureHighF,TemperatureAvgF,TemperatureLowF,DewpointHighF,DewpointAvgF,DewpointLowF,HumidityHigh,HumidityAvg,HumidityLow,PressureMaxIn,PressureMinIn,WindSpeedMaxMPH,WindSpeedAvgMPH,GustSpeedMaxMPH,PrecipitationSumIn
2014-1-1,36,15,5,-100,-100,-100,0,0,100,0.00,40.00,0,-999,0,0.00
2014-1-2,14,7,-3,-100,-100,-100,0,0,100,0.00,40.00,0,-999,0,0.00
2014-1-3,37,21,1,-100,-100,-100,0,0,100,0.00,40.00,0,-999,0,0.00
2014-1-4,34,24,13,-100,-100,-100,0,0,100,0.00,40.00,0,-999,0,0.00
2014-1-5,12,7,-1,-100,-100,-100,0,0,100,0.00,40.00,0,-999,0,0.00
2014-1-6,8,-2,-15,-100,-100,-100,0,0,100,0.00,40.00,0,-999,0,0.00
2014-1-7,39,20,-8,-100,-100,-100,0,0,100,0.00,40.00,0,-999,0,0.00
2014-1-8,25,22,14,-100,-100,-100,0,0,100,0.00,40.00,0,-999,0,0.00
2014-1-9,34,22,14,-100,-100,-100,0,0,100,0.00,40.00,0,-999,0,0.00
2014-1-10,43,36,31,-100,-100,-100,0,0,100,0.00,40.00,0,-999,0,0.00
2014-1-11,46,35,29,-100,-100,-100,0,0,100,0.00,40.00,0,-999,0,0.00
2014-1-12,59,42,32,-100,-100,-100,0,0,100,0.00,40.00,0,-999,0,0.00
2014-1-13,46,37,31,-100,-100,-100,0,0,100,0.00,40.00,0,-999,0,0.00
2014-1-14,40,35,22,-100,-100,-100,0,0,100,0.00,40.00,0,-999,0,0.00
2014-1-15,37,28,15,-100,-100,-100,0,0,100,0.00,40.00,0,-999,0,0.00
2014-1-16,43,36,23,-100,-100,-100,0,0,100,0.00,40.00,0,-999,0,0.00
2014-1-17,34,24,15,-100,-100,-100,0,0,100,0.00,40.00,0,-999,0,0.00
2014-1-18,43,33,21,-100,-100,-100,0,0,100,0.00,40.00,0,-999,0,0.00
2014-1-19,60,40,17,-100,-100,-100,0,0,100,0.00,40.00,0,-999,0,0.00
2014-1-20,47,34,17,-100,-100,-100,0,0,100,0.00,40.00,0,-999,0,0.00
2014-1-21,24,14,2,-100,-100,-100,0,0,100,0.00,40.00,0,-999,0,0.00
2014-1-22,36,24,9,-100,-100,-100,0,0,100,0.00,40.00,0,-999,0,0.00
2014-1-23,15,7,1,-100,-100,-100,0,0,100,0.00,40.00,0,-999,0,0.00
2014-1-24,45,24,1,-100,-100,-100,0,0,100,0.00,40.00,0,-999,0,0.00
2014-1-25,45,39,31,-100,-100,-100,0,0,100,0.00,40.00,0,-999,0,0.00
2014-1-26,56,43,21,-100,-100,-100,0,0,100,0.00,40.00,0,-999,0,0.00
2014-1-27,17,9,3,-100,-100,-100,0,0,100,0.00,40.00,0,-999,0,0.00
2014-1-28,24,15,4,-100,-100,-100,0,0,100,0.00,40.00,0,-999,0,0.00
2014-1-29,47,23,5,-100,-100,-100,0,0,100,0.00,40.00,0,-999,0,0.00
2014-1-30,45,34,27,-100,-100,-100,0,0,100,0.00,40.00,0,-999,0,0.00
2014-1-31,27,20,17,-100,-100,-100,0,0,100,0.00,40.00,0,-999,0,0.00
2014-2-1,25,20,16,-100,-100,-100,0,0,100,0.00,40.00,0,-999,0,0.00
2014-2-2,25,12,4,-100,-100,-100,0,0,100,0.00,40.00,0,-999,0,0.00
2014-2-3,36,22,-1,-100,-100,-100,0,0,100,0.00,40.00,0,-999,0,0.00
2014-2-4,25,19,9,-100,-100,-100,0,0,100,0.00,40.00,0,-999,0,0.00
2014-2-5,8,4,-3,-100,-100,-100,0,0,100,0.00,40.00,0,-999,0,0.00
2014-2-6,10,2,-7,-100,-100,-100,0,0,100,0.00,40.00,0,-999,0,0.00
2014-2-7,16,9,3,-100,-100,-100,0,0,100,0.00,40.00,0,-999,0,0.00
2014-2-8,30,23,17,-100,-100,-100,0,0,100,0.00,40.00,0,-999,0,0.00
2014-2-9,25,16,9,-100,-100,-100,0,0,100,0.00,40.00,0,-999,0,0.00
2014-2-10,11,8,7,-100,-100,-100,0,0,100,0.00,40.00,0,-999,0,0.00
2014-2-11,27,14,6,-100,-100,-100,0,0,100,0.00,40.00,0,-999,0,0.00
2014-2-12,29,22,10,-100,-100,-100,0,0,100,0.00,40.00,0,-999,0,0.00
2014-2-13,43,34,22,-100,-100,-100,0,0,100,0.00,40.00,0,-999,0,0.00
2014-2-14,36,27,18,-100,-100,-100,0,0,100,0.00,40.00,0,-999,0,0.00
2014-2-15,45,35,15,-100,-100,-100,0,0,100,0.00,40.00,0,-999,0,0.00
2014-2-16,42,33,25,-100,-100,-100,0,0,100,0.00,40.00,0,-999,0,0.00
2014-2-17,54,40,30,-100,-100,-100,0,0,100,0.00,40.00,0,-999,0,0.00
2014-2-18,65,49,40,-100,-100,-100,0,0,100,0.00,40.00,0,-999,0,0.00
2014-2-19,55,41,27,-100,-100,-100,0,0,100,0.00,40.00,0,-999,0,0.00
2014-2-20,44,38,32,-100,-100,-100,0,0,100,0.00,40.00,0,-999,0,0.00
2014-2-21,55,36,26,-100,-100,-100,0,0,100,0.00,40.00,0,-999,0,0.00
2014-2-22,51,35,25,-100,-100,-100,0,0,100,0.00,40.00,0,-999,0,0.00
2014-2-23,29,27,25,-100,-100,-100,0,0,100,0.00,40.00,0,-999,0,0.00
2014-2-24,40,30,24,-100,-100,-100,0,0,100,0.00,40.00,0,-999,0,0.00
2014-2-25,25,20,12,-100,-100,-100,0,0,100,0.00,40.00,0,-999,0,0.00
2014-2-26,29,18,5,-100,-100,-100,0,0,100,0.00,40.00,0,-999,0,0.00
2014-2-27,30,22,15,-100,-100,-100,0,0,100,0.00,40.00,0,-999,0,0.00
2014-2-28,52,36,21,-100,-100,-100,0,0,100,0.00,40.00,0,-999,0,0.00
2014-3-1,28,16,3,-100,-100,-100,0,0,100,0.00,40.00,0,-999,0,0.00
2014-3-2,3,2,1,-100,-100,-100,0,0,100,0.00,40.00,0,-999,0,0.00
2014-3-3,23,11,-3,-100,-100,-100,0,0,100,0.00,40.00,0,-999,0,0.00
2014-3-4,43,29,14,-100,-100,-100,0,0,100,0.00,40.00,0,-999,0,0.00
2014-3-5,36,30,27,-100,-100,-100,0,0,100,0.00,40.00,0,-999,0,0.00
2014-3-6,46,33,26,-100,-100,-100,0,0,100,0.00,40.00,0,-999,0,0.00
2014-3-7,64,45,32,-100,-100,-100,0,0,100,0.00,40.00,0,-999,0,0.00
2014-3-8,37,30,25,-100,-100,-100,0,0,100,0.00,40.00,0,-999,0,0.00
2014-3-9,62,42,21,-100,-100,-100,0,0,100,0.00,40.00,0,-999,0,0.00
2014-3-10,74,51,43,-100,-100,-100,0,0,100,0.00,40.00,0,-999,0,0.00
2014-3-11,75,53,36,-100,-100,-100,0,0,100,0.00,40.00,0,-999,0,0.00
2014-3-12,54,40,28,-100,-100,-100,0,0,100,0.00,40.00,0,-999,0,0.00
2014-3-13,69,49,24,-100,-100,-100,0,0,100,0.00,40.00,0,-999,0,0.00
2014-3-14,62,53,40,-100,-100,-100,0,0,100,0.00,40.00,0,-999,0,0.00
2014-3-15,76,49,31,-100,-100,-100,0,0,100,0.00,40.00,0,-999,0,0.00
2014-3-16,38,33,25,-100,-100,-100,0,0,100,0.00,40.00,0,-999,0,0.00
2014-3-17,58,35,20,-100,-100,-100,0,0,100,0.00,40.00,0,-999,0,0.00
2014-3-18,64,52,43,-100,-100,-100,0,0,100,0.00,40.00,0,-999,0,0.00
2014-3-19,53,46,34,-100,-100,-100,0,0,100,0.00,40.00,0,-999,0,0.00
2014-3-20,70,52,28,-100,-100,-100,0,0,100,0.00,40.00,0,-999,0,0.00
2014-3-21,61,51,42,-100,-100,-100,0,0,100,0.00,40.00,0,-999,0,0.00
2014-3-22,40,32,24,-100,-100,-100,0,0,100,0.00,40.00,0,-999,0,0.00
2014-3-23,43,27,14,-100,-100,-100,0,0,100,0.00,40.00,0,-999,0,0.00
2014-3-24,36,29,25,-100,-100,-100,0,0,100,0.00,40.00,0,-999,0,0.00
2014-3-25,40,31,25,-100,-100,-100,0,0,100,0.00,40.00,0,-999,0,0.00
2014-3-26,58,37,25,-100,-100,-100,0,0,100,0.00,40.00,0,-999,0,0.00
2014-3-27,70,51,36,-100,-100,-100,0,0,100,0.00,40.00,0,-999,0,0.00
2014-3-28,49,37,26,-100,-100,-100,0,0,100,0.00,40.00,0,-999,0,0.00
2014-3-29,62,39,26,-100,-100,-100,0,0,100,0.00,40.00,0,-999,0,0.00
2014-3-30,73,58,40,-100,-100,-100,0,0,100,0.00,40.00,0,-999,0,0.00
2014-3-31,77,62,40,-100,-100,-100,0,0,100,0.00,40.00,0,-999,0,0.00
2014-4-1,51,38,25,-100,-100,-100,0,0,100,0.00,40.00,0,-999,0,0.00
2014-4-2,48,44,40,-100,-100,-100,0,0,100,0.00,40.00,0,-999,0,0.00
2014-4-3,52,48,39,-100,-100,-100,0,0,100,0.00,40.00,0,-999,0,0.00
2014-4-4,44,38,32,-100,-100,-100,0,0,100,0.00,40.00,0,-999,0,0.00
2014-4-5,65,45,27,-100,-100,-100,0,0,100,0.00,40.00,0,-999,0,0.00
2014-4-6,62,50,45,-100,-100,-100,0,0,100,0.00,40.00,0,-999,0,0.00
2014-4-7,59,51,42,-100,-100,-100,0,0,100,0.00,40.00,0,-999,0,0.00
2014-4-8,59,48,40,-100,-100,-100,0,0,100,0.00,40.00,0,-999,0,0.00
2014-4-9,80,60,27,-100,-100,-100,0,0,100,0.00,40.00,0,-999,0,0.00
2014-4-10,65,61,51,-100,-100,-100,0,0,100,0.00,40.00,0,-999,0,0.00
2014-4-11,82,60,36,-100,-100,-100,0,0,100,0.00,40.00,0,-999,0,0.00
2014-4-12,83,70,54,-100,-100,-100,0,0,100,0.00,40.00,0,-999,0,0.00
2014-4-13,75,57,33,-100,-100,-100,0,0,100,0.00,40.00,0,-999,0,0.00
2014-4-14,42,34,28,-100,-100,-100,0,0,100,0.00,40.00,0,-999,0,0.00
2014-4-15,59,38,25,-100,-100,-100,0,0,100,0.00,40.00,0,-999,0,0.00
2014-4-16,68,52,43,-100,-100,-100,0,0,100,0.00,40.00,0,-999,0,0.00
2014-4-17,54,40,33,-100,-100,-100,0,0,100,0.00,40.00,0,-999,0,0.00
2014-4-18,73,45,29,-100,-100,-100,0,0,100,0.00,40.00,0,-999,0,0.00
2014-4-19,80,62,45,-100,-100,-100,0,0,100,0.00,40.00,0,-999,0,0.00
2014-4-20,80,66,55,-100,-100,-100,0,0,100,0.00,40.00,0,-999,0,0.00
2014-4-21,73,64,55,-100,-100,-100,0,0,100,0.00,40.00,0,-999,0,0.00
2014-4-22,71,58,41,-100,-100,-100,0,0,100,0.00,40.00,0,-999,0,0.00
2014-4-23,80,67,51,-100,-100,-100,0,0,100,0.00,40.00,0,-999,0,0.00
2014-4-24,70,58,46,-100,-100,-100,0,0,100,0.00,40.00,0,-999,0,0.00
2014-4-25,82,62,40,-100,-100,-100,0,0,100,0.00,40.00,0,-999,0,0.00
2014-4-26,81,71,58,-100,-100,-100,0,0,100,0.00,40.00,0,-999,0,0.00
2014-4-27,79,69,56,-100,-100,-100,0,0,100,0.00,40.00,0,-999,0,0.00
2014-4-28,60,52,45,-100,-100,-100,0,0,100,0.00,40.00,0,-999,0,0.00
2014-4-29,45,43,41,-100,-100,-100,0,0,100,0.00,40.00,0,-999,0,0.00
2014-4-30,52,45,38,-100,-100,-100,0,0,100,0.00,40.00,0,-999,0,0.00
2014-5-1,53,48,43,-100,-100,-100,0,0,100,0.00,40.00,0,-999,0,0.00
2014-5-2,73,54,36,-100,-100,-100,0,0,100,0.00,40.00,0,-999,0,0.00
2014-5-3,85,64,43,-100,-100,-100,0,0,100,0.00,40.00,0,-999,0,0.00
2014-5-4,94,68,51,-100,-100,-100,0,0,100,0.00,40.00,0,-999,0,0.00
2014-5-5,82,64,53,-100,-100,-100,0,0,100,0.00,40.00,0,-999,0,0.00
2014-5-6,93,72,57,-100,-100,-100,0,0,100,0.00,40.00,0,-999,0,0.00
2014-5-13,59,54,48,-100,-100,-100,0,0,100,0.00,40.00,0,-999,0,0.00
2014-5-14,66,51,43,-100,-100,-100,0,0,100,0.00,40.00,0,-999,0,0.00
2014-5-15,60,51,43,-100,-100,-100,0,0,100,0.00,40.00,0,-999,0,0.00
2014-5-16,58,45,32,-100,-100,-100,0,0,100,0.00,40.00,0,-999,0,0.00
2014-5-17,69,50,36,-100,-100,-100,0,0,100,0.00,40.00,0,-999,0,0.00
2014-5-18,79,61,39,-100,-100,-100,0,0,100,0.00,40.00,0,-999,0,0.00
2014-5-19,87,70,59,-100,-100,-100,0,0,100,0.00,40.00,0,-999,0,0.00
2014-5-20,92,78,64,-100,-100,-100,0,0,100,0.00,40.00,0,-999,0,0.00
2014-5-21,85,80,69,-100,-100,-100,0,0,100,0.00,40.00,0,-999,0,0.00
2014-5-22,77,68,59,-100,-100,-100,0,0,100,0.00,40.00,0,-999,0,0.00
2014-5-23,81,66,58,-100,-100,-100,0,0,100,0.00,40.00,0,-999,0,0.00
2014-5-24,71,66,60,-100,-100,-100,0,0,100,0.00,40.00,0,-999,0,0.00
2014-5-25,86,75,64,-100,-100,-100,0,0,100,0.00,40.00,0,-999,0,0.00
2014-5-26,88,73,64,-100,-100,-100,0,0,100,0.00,40.00,0,-999,0,0.00
2014-5-27,87,73,59,-100,-100,-100,0,0,100,0.00,40.00,0,-999,0,0.00
2014-5-28,90,75,65,-100,-100,-100,0,0,100,0.00,40.00,0,-999,0,0.00
2014-5-29,86,75,64,-100,-100,-100,0,0,100,0.00,40.00,0,-999,0,0.00
2014-5-30,87,77,66,-100,-100,-100,0,0,100,0.00,40.00,0,-999,0,0.00
2014-5-31,91,78,65,-100,-100,-100,0,0,100,0.00,40.00,0,-999,0,0.00
2014-6-1,89,78,66,-100,-100,-100,0,0,100,0.00,40.00,0,-999,0,0.00
2014-6-2,89,73,61,-100,-100,-100,0,0,100,0.00,40.00,0,-999,0,0.00
2014-6-3,92,78,68,-100,-100,-100,0,0,100,0.00,40.00,0,-999,0,0.00
2014-6-4,82,75,65,-100,-100,-100,0,0,100,0.00,40.00,0,-999,0,0.00
2014-6-5,86,72,65,-100,-100,-100,0,0,100,0.00,40.00,0,-999,0,0.00
2014-6-6,83,75,62,-100,-100,-100,0,0,100,0.00,40.00,0,-999,0,0.00
2014-6-7,75,69,65,-100,-100,-100,0,0,100,0.00,40.00,0,-999,0,0.00
2014-6-8,82,66,58,-100,-100,-100,0,0,100,0.00,40.00,0,-999,0,0.00
2014-6-9,68,62,58,-100,-100,-100,0,0,100,0.00,40.00,0,-999,0,0.00
2014-6-10,73,65,59,-100,-100,-100,0,0,100,0.00,40.00,0,-999,0,0.00
2014-6-11,87,73,54,-100,-100,-100,0,0,100,0.00,40.00,0,-999,0,0.00
2014-6-12,74,67,60,-100,-100,-100,0,0,100,0.00,40.00,0,-999,0,0.00
2014-6-13,84,68,50,-100,-100,-100,0,0,100,0.00,40.00,0,-999,0,0.00
2014-6-14,86,73,58,-100,-100,-100,0,0,100,0.00,40.00,0,-999,0,0.00
2014-6-15,89,75,62,-100,-100,-100,0,0,100,0.00,40.00,0,-999,0,0.00
2014-6-16,88,77,66,-100,-100,-100,0,0,100,0.00,40.00,0,-999,0,0.00
2014-6-17,88,81,75,-100,-100,-100,0,0,100,0.00,40.00,0,-999,0,0.00
2014-6-18,92,82,74,-100,-100,-100,0,0,100,0.00,40.00,0,-999,0,0.00
2014-6-19,89,80,73,-100,-100,-100,0,0,100,0.00,40.00,0,-999,0,0.00
2014-6-20,96,81,69,-100,-100,-100,0,0,100,0.00,40.00,0,-999,0,0.00
2014-6-21,95,80,67,-100,-100,-100,0,0,100,0.00,40.00,0,-999,0,0.00
2014-6-22,94,80,65,-100,-100,-100,0,0,100,0.00,40.00,0,-999,0,0.00
2014-6-23,83,72,65,-100,-100,-100,0,0,100,0.00,40.00,0,-999,0,0.00
2014-6-24,87,73,62,-100,-100,-100,0,0,100,0.00,40.00,0,-999,0,0.00
2014-6-25,92,79,62,-100,-100,-100,0,0,100,0.00,40.00,0,-999,0,0.00
2014-6-26,88,77,69,-100,-100,-100,0,0,100,0.00,40.00,0,-999,0,0.00
2014-6-27,83,76,71,-100,-100,-100,0,0,100,0.00,40.00,0,-999,0,0.00
2014-6-28,82,74,66,-100,-100,-100,0,0,100,0.00,40.00,0,-999,0,0.00
2014-6-29,92,83,67,-100,-100,-100,0,0,100,0.00,40.00,0,-999,0,0.00
2014-6-30,91,85,78,-100,-100,-100,0,0,100,0.00,40.00,0,-999,0,0.00
2014-7-1,88,73,64,-100,-100,-100,0,0,100,0.00,40.00,0,-999,0,0.00
2014-7-2,69,63,54,-100,-100,-100,0,0,100,0.00,40.00,0,-999,0,0.00
2014-7-3,89,71,51,-100,-100,-100,0,0,100,0.00,40.00,0,-999,0,0.00
2014-7-4,89,72,56,-100,-100,-100,0,0,100,0.00,40.00,0,-999,0,0.00
2014-7-5,93,79,66,-100,-100,-100,0,0,100,0.00,40.00,0,-999,0,0.00
2014-7-6,96,84,73,-100,-100,-100,0,0,100,0.00,40.00,0,-999,0,0.00
2014-7-7,99,81,65,-100,-100,-100,0,0,100,0.00,40.00,0,-999,0,0.00
2014-7-8,82,74,65,-100,-100,-100,0,0,100,0.00,40.00,0,-999,0,0.00
2014-7-9,87,76,58,-100,0,200,0,0,100,0.00,40.00,0,0,0,0.00
2014-7-10,89,81,68,-100,0,200,0,0,100,0.00,40.00,0,0,0,0.00
2014-7-11,96,82,68,-100,0,200,0,0,100,0.00,40.00,0,0,0,0.00
2014-7-12,93,82,72,-100,0,200,0,0,100,0.00,40.00,0,0,0,0.00
2014-7-13,85,76,71,-100,0,200,0,0,100,0.00,40.00,0,0,0,0.00
2014-7-14,76,69,58,-100,0,200,0,0,100,0.00,40.00,0,0,0,0.00
2014-7-15,74,62,51,-100,0,200,0,0,100,0.00,40.00,0,0,0,0.00
2014-7-16,80,62,50,-100,0,200,0,0,100,0.00,40.00,0,0,0,0.00
2014-7-17,82,70,56,-100,0,200,0,0,100,0.00,40.00,0,0,0,0.00
2014-7-18,83,70,60,-100,0,200,0,0,100,0.00,40.00,0,0,0,0.00
2014-7-19,83,72,56,-100,0,200,0,0,100,0.00,40.00,0,0,0,0.00
2014-7-20,90,75,60,-100,0,200,0,0,100,0.00,40.00,0,0,0,0.00
2014-7-21,92,78,71,-100,0,200,0,0,100,0.00,40.00,0,0,0,0.00
2014-7-22,102,87,76,-100,0,200,0,0,100,0.00,40.00,0,0,0,0.00
2014-7-23,86,77,72,-100,0,200,0,0,100,0.00,40.00,0,0,0,0.00
2014-7-24,90,78,62,-100,0,200,0,0,100,0.00,40.00,0,0,0,0.00
2014-7-25,98,85,70,-100,0,200,0,0,100,0.00,40.00,0,0,0,0.00
2014-7-26,98,85,79,-100,0,200,0,0,100,0.00,40.00,0,0,0,0.00
2014-7-27,87,78,69,-100,0,200,0,0,100,0.00,40.00,0,0,0,0.00
2014-7-28,80,70,58,-100,0,200,0,0,100,0.00,40.00,0,0,0,0.00
2014-7-29,88,68,55,-100,0,200,0,0,100,0.00,40.00,0,0,0,0.00
2014-7-30,83,70,63,-100,0,200,0,0,100,0.00,40.00,0,0,0,0.00
2014-7-31,88,72,52,-100,0,200,0,0,100,0.00,40.00,0,0,0,0.00
2014-8-1,91,76,62,-100,0,200,0,0,100,0.00,40.00,0,0,0,0.00
2014-8-2,94,77,65,-100,0,200,0,0,100,0.00,40.00,0,0,0,0.00
2014-8-3,89,72,65,-100,0,200,0,0,100,0.00,40.00,0,0,0,0.00
2014-8-4,95,82,69,-100,0,200,0,0,100,0.00,40.00,0,0,0,0.00
2014-8-5,99,84,67,-100,0,200,0,0,100,0.00,40.00,0,0,0,0.00
2014-8-6,95,79,65,-100,0,200,0,0,100,0.00,40.00,0,0,0,0.00
2014-8-7,82,77,69,-100,0,200,0,0,100,0.00,40.00,0,0,0,0.00
2014-8-8,81,72,66,-100,0,200,0,0,100,0.00,40.00,0,0,0,0.00
2014-8-9,85,77,66,-100,0,200,0,0,100,0.00,40.00,0,0,0,0.00
2014-8-10,84,72,66,-100,0,200,0,0,100,0.00,40.00,0,0,0,0.00
2014-8-11,80,72,62,-100,0,200,0,0,100,0.00,40.00,0,0,0,0.00
2014-8-12,79,69,56,-100,0,200,0,0,100,0.00,40.00,0,0,0,0.00
2014-8-13,87,70,52,-100,0,200,0,0,100,0.00,40.00,0,0,0,0.00
2014-8-14,91,73,57,-100,0,200,0,0,100,0.00,40.00,0,0,0,0.00
2014-8-15,87,76,65,-100,0,200,0,0,100,0.00,40.00,0,0,0,0.00
2014-8-16,83,75,69,-100,0,200,0,0,100,0.00,40.00,0,0,0,0.00
2014-8-17,87,75,61,-100,0,200,0,0,100,0.00,40.00,0,0,0,0.00
2014-8-18,98,77,62,-100,0,200,0,0,100,0.00,40.00,0,0,0,0.00
2014-8-19,96,79,70,-100,0,200,0,0,100,0.00,40.00,0,0,0,0.00
2014-8-20,94,85,72,-100,0,200,0,0,100,0.00,40.00,0,0,0,0.00
2014-8-21,99,86,76,-100,0,200,0,0,100,0.00,40.00,0,0,0,0.00
2014-8-22,98,85,76,-100,0,200,0,0,100,0.00,40.00,0,0,0,0.00
2014-8-23,101,86,75,-100,0,200,0,0,100,0.00,40.00,0,0,0,0.00
2014-8-24,102,89,75,-100,0,200,0,0,100,0.00,40.00,0,0,0,0.00
2014-8-25,95,83,73,-100,0,200,0,0,100,0.00,40.00,0,0,0,0.00
2014-8-26,91,77,69,-100,0,200,0,0,100,0.00,40.00,0,0,0,0.00
2014-8-27,84,77,71,-100,0,200,0,0,100,0.00,40.00,0,0,0,0.00
2014-8-28,97,83,74,-100,0,200,0,0,100,0.00,40.00,0,0,0,0.00
2014-8-29,90,77,68,-100,0,200,0,0,100,0.00,40.00,0,0,0,0.00
2014-8-30,91,74,65,-100,0,200,0,0,100,0.00,40.00,0,0,0,0.00
2014-8-31,94,79,64,-100,0,200,0,0,100,0.00,40.00,0,0,0,0.00
2014-9-1,80,70,64,-100,0,200,0,0,100,0.00,40.00,0,0,0,0.00
2014-9-2,87,75,62,-100,0,200,0,0,100,0.00,40.00,0,0,0,0.00
2014-9-3,89,76,66,-100,0,200,0,0,100,0.00,40.00,0,0,0,0.00
2014-9-4,93,82,73,-100,0,200,0,0,100,0.00,40.00,0,0,0,0.00
2014-9-5,77,67,61,-100,0,200,0,0,100,0.00,40.00,0,0,0,0.00
2014-9-6,73,62,54,-100,0,200,0,0,100,0.00,40.00,0,0,0,0.00
2014-9-7,80,66,47,-100,0,200,0,0,100,0.00,40.00,0,0,0,0.00
2014-9-8,86,71,53,-100,0,200,0,0,100,0.00,40.00,0,0,0,0.00
2014-9-9,92,81,73,-100,0,200,0,0,100,0.00,40.00,0,0,0,0.00
2014-9-10,80,67,58,-100,0,200,0,0,100,0.00,40.00,0,0,0,0.00
2014-9-11,60,56,51,-100,0,200,0,0,100,0.00,40.00,0,0,0,0.00
2014-9-12,54,49,45,-100,0,200,0,0,100,0.00,40.00,0,0,0,0.00
2014-9-13,67,48,35,-100,0,200,0,0,100,0.00,40.00,0,0,0,0.00
2014-9-14,77,64,47,-100,0,200,0,0,100,0.00,40.00,0,0,0,0.00
2014-9-15,69,64,51,-100,0,200,0,0,100,0.00,40.00,0,0,0,0.00
2014-9-16,76,59,41,-100,0,200,0,0,100,0.00,40.00,0,0,0,0.00
2014-9-17,76,66,61,-100,0,200,0,0,100,0.00,40.00,0,0,0,0.00
2014-9-18,70,63,59,-100,0,200,0,0,100,0.00,40.00,0,0,0,0.00
2014-9-19,83,70,58,-100,0,200,0,0,100,0.00,40.00,0,0,0,0.00
2014-9-20,90,71,65,-100,0,200,0,0,100,0.00,40.00,0,0,0,0.00
2014-9-21,75,64,53,-100,0,200,0,0,100,0.00,40.00,0,0,0,0.00
2014-9-22,77,61,43,-100,0,200,0,0,100,0.00,40.00,0,0,0,0.00
2014-9-23,76,63,52,-100,0,200,0,0,100,0.00,40.00,0,0,0,0.00
2014-9-24,75,66,58,-100,0,200,0,0,100,0.00,40.00,0,0,0,0.00
2014-9-25,87,71,58,-100,0,200,0,0,100,0.00,40.00,0,0,0,0.00
2014-9-26,85,68,57,-100,0,200,0,0,100,0.00,40.00,0,0,0,0.00
2014-9-27,83,69,54,-100,0,200,0,0,100,0.00,40.00,0,0,0,0.00
2014-9-28,85,67,51,-100,0,200,0,0,100,0.00,40.00,0,0,0,0.00
2014-9-29,87,66,51,-100,0,200,0,0,100,0.00,40.00,0,0,0,0.00
2014-9-30,85,72,59,-100,0,200,0,0,100,0.00,40.00,0,0,0,0.00
2014-10-1,86,73,60,-100,0,200,0,0,100,0.00,40.00,0,0,0,0.00
2014-10-2,65,60,53,-100,0,200,0,0,100,0.00,40.00,0,0,0,0.00
2014-10-3,54,49,38,-100,0,200,0,0,100,0.00,40.00,0,0,0,0.00
2014-10-4,59,45,33,-100,0,200,0,0,100,0.00,40.00,0,0,0,0.00
2014-10-5,73,58,39,-100,0,200,0,0,100,0.00,40.00,0,0,0,0.00
2014-10-6,74,59,45,-100,0,200,0,0,100,0.00,40.00,0,0,0,0.00
2014-10-7,78,63,52,-100,0,200,0,0,100,0.00,40.00,0,0,0,0.00
2014-10-8,73,58,44,-100,0,200,0,0,100,0.00,40.00,0,0,0,0.00
2014-10-9,63,58,52,-100,0,200,0,0,100,0.00,40.00,0,0,0,0.00
2014-10-10,52,48,45,-100,0,200,0,0,100,0.00,40.00,0,0,0,0.00
2014-10-11,61,49,36,-100,0,200,0,0,100,0.00,40.00,0,0,0,0.00
2014-10-12,60,54,46,-100,0,200,0,0,100,0.00,40.00,0,0,0,0.00
2014-10-13,54,52,50,-100,0,200,0,0,100,0.00,40.00,0,0,0,0.00
2014-10-14,64,55,47,-100,0,200,0,0,100,0.00,40.00,0,0,0,0.00
2014-10-15,69,52,38,-100,0,200,0,0,100,0.00,40.00,0,0,0,0.00
2014-10-16,78,56,41,-100,0,200,0,0,100,0.00,40.00,0,0,0,0.00
2014-10-17,66,55,43,-100,0,200,0,0,100,0.00,40.00,0,0,0,0.00
2014-10-18,60,47,36,-100,0,200,0,0,100,0.00,40.00,0,0,0,0.00
2014-10-19,73,54,36,-100,0,200,0,0,100,0.00,40.00,0,0,0,0.00
2014-10-20,73,58,40,-100,0,200,0,0,100,0.00,40.00,0,0,0,0.00
2014-10-21,76,55,36,-100,0,200,0,0,100,0.00,40.00,0,0,0,0.00
2014-10-22,79,65,50,-100,0,200,0,0,100,0.00,40.00,0,0,0,0.00
2014-10-23,75,63,59,-100,0,200,0,0,100,0.00,40.00,0,0,0,0.00
2014-10-24,78,64,54,-100,0,200,0,0,100,0.00,40.00,0,0,0,0.00
2014-10-25,78,62,50,-100,0,200,0,0,100,0.00,40.00,0,0,0,0.00
2014-10-26,86,71,55,-100,0,200,0,0,100,0.00,40.00,0,0,0,0.00
2014-10-27,73,66,53,-100,0,200,0,0,100,0.00,40.00,0,0,0,0.00
2014-10-28,62,51,40,-100,0,200,0,0,100,0.00,40.00,0,0,0,0.00
2014-10-29,63,45,31,-100,0,200,0,0,100,0.00,40.00,0,0,0,0.00
2014-10-30,66,53,43,-100,0,200,0,0,100,0.00,40.00,0,0,0,0.00
2014-10-31,45,37,25,-100,0,200,0,0,100,0.00,40.00,0,0,0,0.00
2014-11-1,54,34,20,-100,0,200,0,0,100,0.00,40.00,0,0,0,0.00
2014-11-2,62,51,43,-100,0,200,0,0,100,0.00,40.00,0,0,0,0.00
2014-11-3,68,54,48,-100,0,200,0,0,100,0.00,40.00,0,0,0,0.00
2014-11-4,51,44,40,-100,0,200,0,0,100,0.00,40.00,0,0,0,0.00
2014-11-5,68,50,30,-100,0,200,0,0,100,0.00,40.00,0,0,0,0.00
2014-11-6,51,42,29,-100,0,200,0,0,100,0.00,40.00,0,0,0,0.00
2014-11-7,64,45,29,-100,0,200,0,0,100,0.00,40.00,0,0,0,0.00
2014-11-8,53,45,33,-100,0,200,0,0,100,0.00,40.00,0,0,0,0.00
2014-11-9,67,50,31,-100,0,200,0,0,100,0.00,40.00,0,0,0,0.00
2014-11-10,70,48,29,-100,0,200,0,0,100,0.00,40.00,0,0,0,0.00
2014-11-11,30,24,19,-100,0,200,0,0,100,0.00,40.00,0,0,0,0.00
2014-11-12,24,19,14,-100,0,200,0,0,100,0.00,40.00,0,0,0,0.00
2014-11-13,28,18,11,-100,0,200,0,0,100,0.00,40.00,0,0,0,0.00
2014-11-14,34,19,9,-100,0,200,0,0,100,0.00,40.00,0,0,0,0.00
2014-11-15,32,26,21,-100,0,200,0,0,100,0.00,40.00,0,0,0,0.00
2014-11-16,28,17,11,-100,0,200,0,0,100,0.00,40.00,0,0,0,0.00
2014-11-17,21,16,10,-100,0,200,0,0,100,0.00,40.00,0,0,0,0.00
2014-11-18,40,22,4,-100,0,200,0,0,100,0.00,40.00,0,0,0,0.00
2014-11-19,36,30,18,-100,0,200,0,0,100,0.00,40.00,0,0,0,0.00
2014-11-20,38,21,12,-100,0,200,0,0,100,0.00,40.00,0,0,0,0.00
2014-11-21,40,29,18,-100,0,200,0,0,100,0.00,40.00,0,0,0,0.00
2014-11-22,58,49,36,-100,0,200,0,0,100,0.00,40.00,0,0,0,0.00
2014-11-23,57,48,39,-100,0,200,0,0,100,0.00,40.00,0,0,0,0.00
2014-11-24,39,32,24,-100,0,200,0,0,100,0.00,40.00,0,0,0,0.00
2014-11-25,46,33,18,-100,0,200,0,0,100,0.00,40.00,0,0,0,0.00
2014-11-26,40,33,25,-100,0,200,0,0,100,0.00,40.00,0,0,0,0.00
2014-11-27,40,28,21,-100,0,200,0,0,100,0.00,40.00,0,0,0,0.00
2014-11-28,63,45,31,-100,0,200,0,0,100,0.00,40.00,0,0,0,0.00
2014-11-29,65,50,40,-100,0,200,0,0,100,0.00,40.00,0,0,0,0.00
2014-11-30,47,26,18,-100,0,200,0,0,100,0.00,40.00,0,0,0,0.00
2014-12-1,25,17,14,-100,0,200,0,0,100,0.00,40.00,0,0,0,0.00
2014-12-2,42,26,13,-100,0,200,0,0,100,0.00,40.00,0,0,0,0.00
2014-12-3,42,31,18,-100,0,200,0,0,100,0.00,40.00,0,0,0,0.00
2014-12-4,43,37,31,-100,0,200,0,0,100,0.00,40.00,0,0,0,0.00
2014-12-5,45,40,38,-100,0,200,0,0,100,0.00,40.00,0,0,0,0.00
2014-12-6,40,35,32,-100,0,200,0,0,100,0.00,40.00,0,0,0,0.00
2014-12-7,43,38,34,-100,0,200,0,0,100,0.00,40.00,0,0,0,0.00
2014-12-8,52,42,36,-100,0,200,0,0,100,0.00,40.00,0,0,0,0.00
2014-12-9,37,29,24,-100,0,200,0,0,100,0.00,40.00,0,0,0,0.00
2014-12-10,32,30,29,-100,0,200,0,0,100,0.00,40.00,0,0,0,0.00
2014-12-11,40,34,31,-100,0,200,0,0,100,0.00,40.00,0,0,0,0.00
2014-12-12,52,45,36,-100,0,200,0,0,100,0.00,40.00,0,0,0,0.00
2014-12-13,54,51,48,-100,0,200,0,0,100,0.00,40.00,0,0,0,0.00
2014-12-14,60,55,48,-100,0,200,0,0,100,0.00,40.00,0,0,0,0.00
2014-12-15,48,40,28,-100,0,200,0,0,100,0.00,40.00,0,0,0,0.00
2014-12-16,29,26,23,-100,0,200,0,0,100,0.00,40.00,0,0,0,0.00
2014-12-17,30,24,21,-100,0,200,0,0,100,0.00,40.00,0,0,0,0.00
2014-12-18,32,28,25,-100,0,200,0,0,100,0.00,40.00,0,0,0,0.00
2014-12-19,36,31,27,-100,0,200,0,0,100,0.00,40.00,0,0,0,0.00
2014-12-20,47,35,28,-100,0,200,0,0,100,0.00,40.00,0,0,0,0.00
2014-12-21,43,40,36,-100,0,200,0,0,100,0.00,40.00,0,0,0,0.00
2014-12-22,45,43,38,-100,0,200,0,0,100,0.00,40.00,0,0,0,0.00
2014-12-23,40,35,32,-100,0,200,0,0,100,0.00,40.00,0,0,0,0.00
2014-12-24,33,32,30,-100,0,200,0,0,100,0.00,40.00,0,0,0,0.00
2014-12-25,51,40,30,-100,0,200,0,0,100,0.00,40.00,0,0,0,0.00
2014-12-26,44,37,30,-100,0,200,0,0,100,0.00,40.00,0,0,0,0.00
2014-12-27,32,27,21,-100,0,200,0,0,100,0.00,40.00,0,0,0,0.00
2014-12-28,41,28,16,-100,0,200,0,0,100,0.00,40.00,0,0,0,0.00
2014-12-29,40,30,21,-100,0,200,0,0,100,0.00,40.00,0,0,0,0.00
2014-12-30,16,11,6,-100,0,200,0,0,100,0.00,40.00,0,0,0,0.00
2014-12-31,21,11,3,-100,0,200,0,0,100,0.00,40.00,0,0,0,0.00
2015-1-1,34,24,16,-100,0,200,0,0,100,0.00,40.00,0,0,0,0.00
2015-1-2,39,34,30,-100,0,200,0,0,100,0.00,40.00,0,0,0,0.00